Change the Weather History Date:

Tuesday, April 2, 2013

  Actual Average Record
Temperature  
Mean Temperature 47 °F -  
Max Temperature 60 °F 70 °F 88 °F (1974)
Min Temperature 35 °F 42 °F 29 °F (1987)
Degree Days  
Heating Degree Days 18    
Moisture  
Dew Point 26 °F    
Average Humidity 47    
Maximum Humidity 87    
Minimum Humidity 22    
Precipitation  
Precipitation 0.00 in - - ()
Sea Level Pressure  
Sea Level Pressure 30.09 in    
Wind  
Wind Speed 3 mph (NW)    
Max Wind Speed 15 mph    
Max Gust Speed 25 mph    
Visibility 10 miles    
Events      
Averages and records for this station are not official NWS values.
T = Trace of Precipitation, MM = Missing Value Source: NWS Daily Summary

Daily Weather History Graph

Daily Weather History Graph

Search for Another Location

Airport or City:

Trip Planner

Search our weather history database for the weather conditions in past years. The results will help you decide how hot, cold, wet, or windy it might be!

Date:

Astronomy

Apr. 02, 2013 Rise Set
Actual Time 7:02 AM EDT 7:40 PM EDT
Civil Twilight 6:36 AM EDT 8:06 PM EDT
Nautical Twilight 6:06 AM EDT 8:37 PM EDT
Astronomical Twilight 5:34 AM EDT 9:08 PM EDT
Moon 1:36 AM EDT (4/2) 11:58 AM EDT (4/2)
Length of Visible Light 13h 30m
Length of Day
12h 38m
Waning Gibbous, 56% of the Moon is Illuminated
Apr 2
Waning Gibbous
Apr 3
Last Quarter
Apr 10
New
Apr 18
First Quarter
Apr 25
Full

Hourly Weather History & Observations

Time (EDT) Temp. Windchill Dew Point Humidity Pressure Visibility Wind Dir Wind Speed Gust Speed Precip Events Conditions
12:54 AM 46.9 °F - 33.1 °F 59% 30.01 in 10.0 mi Calm Calm - N/A   Clear
1:54 AM 45.0 °F 43.5 °F 33.1 °F 63% 30.01 in 10.0 mi Variable 3.5 mph - N/A   Clear
2:54 AM 43.0 °F 41.3 °F 30.0 °F 60% 30.02 in 10.0 mi NE 3.5 mph - N/A   Clear
3:54 AM 39.9 °F - 30.9 °F 70% 30.03 in 10.0 mi Calm Calm - N/A   Clear
4:54 AM 39.0 °F - 30.0 °F 70% 30.05 in 10.0 mi Calm Calm - N/A   Clear
5:54 AM 35.1 °F - 30.0 °F 82% 30.07 in 10.0 mi Calm Calm - N/A   Clear
6:54 AM 35.1 °F - 30.0 °F 82% 30.10 in 10.0 mi Calm Calm - N/A   Clear
7:54 AM 36.0 °F - 32.0 °F 86% 30.14 in 2.5 mi Calm Calm - N/A   Clear
8:05 AM 37.4 °F - 33.8 °F 87% 30.14 in 10.0 mi Calm Calm - N/A   Clear
8:54 AM 44.1 °F - 32.0 °F 63% 30.15 in 10.0 mi Calm Calm - N/A   Clear
9:54 AM 48.0 °F - 26.1 °F 42% 30.15 in 10.0 mi NNW 3.5 mph - N/A   Clear
10:54 AM 51.1 °F - 26.1 °F 38% 30.15 in 10.0 mi NW 8.1 mph - N/A   Clear
11:54 AM 52.0 °F - 24.1 °F 34% 30.15 in 10.0 mi Variable 4.6 mph 20.7 mph N/A   Clear
12:54 PM 54.0 °F - 24.1 °F 31% 30.13 in 10.0 mi WNW 13.8 mph 25.3 mph N/A   Clear
1:54 PM 57.0 °F - 25.0 °F 29% 30.10 in 10.0 mi WSW 15.0 mph - N/A   Clear
2:54 PM 57.9 °F - 21.9 °F 25% 30.08 in 10.0 mi SW 11.5 mph 20.7 mph N/A   Clear
3:54 PM 59.0 °F - 21.0 °F 23% 30.06 in 10.0 mi West 9.2 mph 18.4 mph N/A   Clear
4:54 PM 59.0 °F - 21.0 °F 23% 30.06 in 10.0 mi West 10.4 mph 19.6 mph N/A   Clear
5:54 PM 57.9 °F - 19.0 °F 22% 30.06 in 10.0 mi WNW 8.1 mph - N/A   Clear
6:54 PM 57.0 °F - 19.0 °F 23% 30.07 in 10.0 mi WNW 8.1 mph - N/A   Clear
7:54 PM 55.0 °F - 19.0 °F 24% 30.07 in 10.0 mi Calm Calm - N/A   Clear
8:54 PM 48.9 °F - 25.0 °F 39% 30.09 in 10.0 mi Calm Calm - N/A   Clear
9:54 PM 52.0 °F - 21.9 °F 31% 30.11 in 10.0 mi NNW 3.5 mph - N/A   Clear
10:54 PM 48.9 °F - 19.9 °F 32% 30.13 in 10.0 mi NE 3.5 mph - N/A   Clear
11:54 PM 46.9 °F - 21.9 °F 37% 30.14 in 10.0 mi North 4.6 mph - N/A   Clear